Home   Weather   Metz   Past weeks

Flag for France Past Weather in Metz, Lorraine, France — Yesterday and Last 2 Weeks

Now
23 °F

Clear.


Feels Like: 12 °F
Forecast: 19 / 30 °F
Wind: 12 mph from Northeast

Location: Metz-Nancy-Lorraine

Current Time: Jan 18, 2017 at 7:42:16 pm

Latest Report: Jan 18, 2017 at 7:00 pm


Visibility: 10 mi

Pressure: 30.51 "Hg

Humidity: 74%

Dew Point: 16 °F

Location of MetzLocation

Past Weather in Metz — Graph

°F

Metz Temperature Yesterday

Maximum temperature yesterday: 30 °F (at 2:00 pm)
Minimum temperature yesterday: 16 °F (at 1:00 am)
Average temperature yesterday: 24 °F

High & Low Weather Summary for the Past Weeks

 TemperatureHumidityPressure
High46 °F (Jan 11, 8:00 pm)100% (Jan 3, 6:00 pm)30.69 "Hg (Jan 3, 6:00 pm)
Low14 °F (Jan 7, 12:30 am)60% (Jan 5, 3:00 pm)29.27 "Hg (Jan 12, 10:30 pm)
Average31 °F90%30.20 "Hg
* Reported Jan 3 6:00 pm — Jan 18 6:30 pm, Metz, Weather by CustomWeather, © 2017

Note: Actual official high and low records may vary slightly from our data, if they occured in-between our weather recording intervals... More about our weather records

Advertising

Metz Weather History for the Previous 24 Hours

Scroll right to see more
 ConditionsComfort  
Time TempWeatherWind HumidityBarometerVisibility
6:30 pm
Wed, Jan 18
23 °FClear.12 mph80%30.51 "Hg10 mi
6:00 pm25 °FClear.12 mph74%30.51 "Hg10 mi
5:30 pm25 °FClear.13 mph74%30.51 "Hg10 mi
5:00 pm27 °FSunny.10 mph69%30.51 "Hg10 mi
4:30 pm28 °FPassing clouds.9 mph69%30.51 "HgN/A
4:00 pm37 °FSunny.13 mph60%30.51 "Hg10 mi
3:30 pm30 °FSunny.14 mph69%30.51 "Hg10 mi
3:00 pm30 °FSunny.13 mph64%30.48 "Hg10 mi
2:30 pm30 °FSunny.15 mph64%30.51 "Hg10 mi
2:00 pm30 °FSunny.15 mph69%30.51 "Hg10 mi
1:30 pm28 °FSunny.16 mph69%30.51 "Hg10 mi
1:00 pm28 °FSunny.17 mph69%30.51 "Hg10 mi
12:30 pm28 °FPassing clouds.21 mph69%30.51 "HgN/A
12:00 pm28 °FChilly.20 mph69%30.51 "HgN/A
11:30 am27 °FSunny.23 mph74%30.51 "Hg10 mi
11:00 am27 °FSunny.24 mph74%30.51 "Hg10 mi
10:30 am27 °FSunny.22 mph74%30.51 "Hg10 mi
10:00 am25 °FSunny.23 mph80%30.51 "Hg10 mi
9:30 am25 °FSunny.24 mph74%30.51 "Hg10 mi
9:00 am23 °FSunny.23 mph80%30.51 "Hg10 mi
8:30 am23 °FSunny.21 mph80%30.51 "Hg10 mi
8:00 am23 °FClear.18 mph80%30.51 "Hg10 mi
7:30 am23 °FPassing clouds.20 mph80%30.51 "HgN/A
7:00 am23 °FClear.22 mph80%30.48 "Hg10 mi
6:30 am23 °FClear.20 mph80%30.48 "Hg10 mi
5:30 am23 °FClear.20 mph80%30.48 "Hg10 mi
5:00 am23 °FClear.18 mph80%30.48 "Hg10 mi
4:30 am23 °FClear.20 mph80%30.48 "Hg10 mi
4:00 am23 °FClear.17 mph80%30.48 "Hg10 mi
3:30 am21 °FClear.15 mph86%30.51 "Hg10 mi
3:00 am23 °FClear.14 mph80%30.51 "Hg10 mi
2:30 am21 °FClear.12 mph86%30.51 "Hg10 mi
2:00 am21 °FClear.12 mph80%30.51 "Hg10 mi
1:30 am21 °FClear.12 mph80%30.51 "Hg10 mi
1:00 am19 °FClear.12 mph86%30.51 "Hg10 mi
12:30 am23 °FPassing clouds.5 mph80%30.51 "HgN/A
12:00 am21 °FClear.6 mph80%30.51 "Hg10 mi
11:30 pm
Tue, Jan 17
21 °FClear.5 mph80%30.51 "Hg10 mi
11:00 pm21 °FClear.8 mph80%30.51 "Hg10 mi
10:30 pm23 °FClear.6 mph80%30.51 "Hg10 mi
10:00 pm21 °FClear.7 mph80%30.51 "Hg10 mi
9:30 pm21 °FPassing clouds.5 mph80%30.51 "HgN/A
9:00 pm23 °FClear.7 mph80%30.51 "Hg10 mi
8:30 pm23 °FClear.9 mph80%30.51 "Hg10 mi
8:00 pm25 °FClear.15 mph74%30.51 "Hg10 mi
7:30 pm25 °FClear.18 mph74%30.48 "Hg10 mi
7:00 pm25 °FPassing clouds.15 mph74%30.48 "HgN/A
Weather by CustomWeather, © 2017

See weather overviewHow to use our weather pages